DW0275 Weather Reports


time (UTC)temp
C
wind
direction
speed
KPH
gust
KPH
rain 1hr
cm
rain 24hr
cm
rain mn
cm
humidity
%
barometer
mb
20260903023016 27 168 0.0 4.8 0.00 0.00 0.00 86 1016.2
20260903022826 27 150 1.6 4.8 0.00 0.00 0.00 86 1016.2
20260903022321 27 160 1.6 6.4 0.00 0.00 0.00 85 1016.2
20260903021820 27 139 0.0 6.4 0.00 0.00 0.00 83 1016.0
20260903021558 27 117 1.6 6.4 0.00 0.00 0.00 83 1015.9
20260903021337 28 242 1.6 4.8 0.00 0.00 0.00 83 1015.9
20260903020832 28 134 0.0 3.2 0.00 0.00 0.00 84 1015.6
20260903020330 28 125 0.0 0.0 0.00 0.00 0.00 86 1015.8
20260903020028 28 125 0.0 0.0 0.00 0.00 0.00 86 1015.6
20260903015826 28 125 0.0 0.0 0.00 0.00 0.00 86 1015.6
20260903015323 28 135 0.0 0.0 0.00 0.00 0.00 86 1015.4
20260903014818 28 67 0.0 4.8 0.00 0.00 0.00 86 1015.4
20260903014520 28 89 0.0 4.8 0.00 0.00 0.00 86 1015.3
20260903014335 28 115 0.0 4.8 0.00 0.00 0.00 86 1015.4
20260903013853 28 122 0.0 3.2 0.00 0.00 0.00 86 1015.4
20260903013328 28 127 1.6 3.2 0.00 0.00 0.00 86 1015.3
20260903013046 28 145 1.6 3.2 0.00 0.00 0.00 86 1015.1
20260903012827 28 120 1.6 3.2 0.00 0.00 0.00 86 1015.2
20260903012325 28 140 0.0 4.8 0.00 0.00 0.00 86 1015.2
20260903011823 28 72 1.6 6.4 0.00 0.00 0.00 86 1015.2
20260903011526 28 76 0.0 6.4 0.00 0.00 0.00 85 1015.2
20260903011320 28 63 0.0 6.4 0.00 0.00 0.00 85 1015.2
20260903010816 28 127 3.2 6.4 0.00 0.00 0.00 85 1015.0
20260903010334 28 115 1.6 4.8 0.00 0.00 0.00 85 1015.1
20260903010011 28 120 0.0 4.8 0.00 0.00 0.00 85 1015.0
20260903005830 28 81 1.6 4.8 0.00 0.00 0.00 85 1015.0
20260903005329 28 106 1.6 4.8 0.00 0.00 0.00 85 1015.0
20260903004827 28 110 1.6 4.8 0.00 0.00 0.00 85 1015.2
20260903004541 28 141 0.0 3.2 0.00 0.00 0.00 85 1015.0
20260903004326 28 114 0.0 3.2 0.00 0.00 0.00 85 1015.1
20260903003823 28 127 1.6 3.2 0.00 0.00 0.00 85 1014.9
20260903003321 28 58 0.0 4.8 0.00 0.00 0.00 85 1014.9
20260903003016 28 124 0.0 4.8 0.00 0.00 0.00 85 1014.7
20260903002817 28 120 0.0 3.2 0.00 0.00 0.00 85 1014.8
20260903002316 28 141 1.6 3.2 0.00 0.00 0.00 85 1014.5
20260903001815 28 68 0.0 3.2 0.00 0.00 0.00 85 1014.4
20260903001504 28 82 0.0 1.6 0.00 0.00 0.00 85 1014.3
20260903001400 28 142 0.0 3.2 0.00 0.00 0.00 85 1014.4
20260903000854 28 117 0.0 3.2 0.00 0.00 0.00 85 1014.4
20260903000352 28 126 0.0 1.6 0.00 0.00 0.00 85 1014.5
20260903000036 28 137 0.0 0.0 0.00 0.00 0.00 85 1014.4
20260902235848 28 137 0.0 0.0 0.00 0.00 0.00 85 1014.6
20260902235324 29 139 0.0 6.4 0.00 0.00 0.00 85 1014.6
20260902234840 28 139 3.2 6.4 0.00 0.00 0.00 85 1014.7
20260902234508 28 120 0.0 4.8 0.00 0.00 0.00 85 1014.4
20260902234355 28 120 0.0 4.8 0.00 0.00 0.00 84 1014.4
20260902233851 29 141 1.6 3.2 0.00 0.00 0.00 84 1014.2
20260902233326 29 71 0.0 8.0 0.00 0.00 0.00 84 1014.2
20260902233046 28 75 0.0 8.0 0.00 0.00 0.00 84 1014.2
20260902232823 29 129 1.6 8.0 0.00 0.00 0.00 84 1014.3
20260902232320 28 49 0.0 3.2 0.00 0.00 0.00 84 1014.3
20260902231838 28 72 0.0 4.8 0.00 0.00 0.00 85 1014.3
20260902231528 28 157 1.6 4.8 0.00 0.00 0.00 85 1014.1
20260902231334 28 109 1.6 4.8 0.00 0.00 0.00 85 1014.3
20260902230852 28 129 0.0 3.2 0.00 0.00 0.00 84 1014.3
20260902230327 28 65 0.0 1.6 0.00 0.00 0.00 84 1014.4
20260902230029 28 65 0.0 4.8 0.00 0.00 0.00 85 1014.4
20260902225823 28 126 0.0 4.8 0.00 0.00 0.00 85 1014.5
20260902225339 28 240 1.6 4.8 0.00 0.00 0.00 85 1014.6
20260902224815 28 339 0.0 0.0 0.00 0.00 0.00 85 1014.4
20260902224600 28 342 0.0 0.0 0.00 0.00 0.00 84 1014.4
20260902224331 28 342 0.0 0.0 0.00 0.00 0.00 84 1014.3
20260902223829 28 13 0.0 0.0 0.00 0.00 0.00 84 1014.4
20260902223326 28 11 0.0 1.6 0.00 0.00 0.00 84 1014.5
20260902223045 28 11 0.0 1.6 0.00 0.00 0.00 84 1014.3
20260902222823 29 11 0.0 1.6 0.00 0.00 0.00 83 1014.4
20260902222319 29 76 0.0 4.8 0.00 0.00 0.00 83 1014.3
20260902221535 29 141 1.6 11.3 0.00 0.00 0.00 83 1014.4
20260902221330 30 121 4.8 11.3 0.00 0.00 0.00 83 1014.4
20260902220847 30 142 3.2 14.5 0.00 0.00 0.00 83 1014.2
20260902220322 30 144 4.8 9.7 0.00 0.00 0.00 83 1014.2
20260902220007 29 111 3.2 9.7 0.00 0.00 0.00 82 1014.1
20260902215818 30 131 3.2 9.7 0.00 0.00 0.00 83 1014.2
20260902215316 30 140 3.2 9.7 0.00 0.00 0.00 82 1014.1
20260902214834 30 90 4.8 12.9 0.00 0.00 0.00 82 1014.0
20260902214555 30 131 4.8 12.9 0.00 0.00 0.00 82 1014.0
20260902214332 30 122 6.4 12.9 0.00 0.00 0.00 82 1014.1
20260902213830 30 70 3.2 12.9 0.00 0.00 0.00 82 1014.2
20260902213327 30 154 6.4 9.7 0.00 0.00 0.00 82 1014.1
20260902213050 30 139 4.8 11.3 0.00 0.00 0.00 82 1014.0
20260902212822 30 46 1.6 11.3 0.00 0.00 0.00 82 1014.1
20260902212320 30 139 4.8 11.3 0.00 0.00 0.00 82 1014.0
20260902211817 30 141 4.8 12.9 0.00 0.00 0.00 82 1014.0
20260902211528 30 133 6.4 12.9 0.00 0.00 0.00 82 1014.0
20260902211329 30 117 6.4 11.3 0.00 0.00 0.00 82 1014.1
20260902210826 30 136 3.2 12.9 0.00 0.00 0.00 82 1014.0
20260902210323 30 116 8.0 12.9 0.00 0.00 0.00 82 1014.0
20260902210024 30 135 4.8 12.9 0.00 0.00 0.00 82 1014.0
20260902205820 30 129 6.4 12.9 0.00 0.00 0.00 82 1014.0
20260902205316 30 108 3.2 9.7 0.00 0.00 0.00 82 1014.0
20260902204833 30 149 4.8 9.7 0.00 0.00 0.00 82 1014.0
20260902204553 30 128 3.2 8.0 0.00 0.00 0.00 82 1013.8
20260902204331 30 48 4.8 8.0 0.00 0.00 0.00 82 1013.9
20260902203828 30 41 3.2 9.7 0.00 0.00 0.00 82 1013.9
20260902203325 31 85 4.8 12.9 0.00 0.00 0.00 82 1013.8
20260902203058 30 142 3.2 12.9 0.00 0.00 0.00 82 1013.7
20260902202821 31 145 3.2 16.1 0.00 0.00 0.00 82 1013.9
20260902202317 31 30 4.8 16.1 0.00 0.00 0.00 82 1014.0
20260902201833 31 37 4.8 12.9 0.00 0.00 0.00 82 1014.1
20260902201526 31 28 3.2 12.9 0.00 0.00 0.00 82 1014.0
20260902201329 31 122 3.2 12.9 0.00 0.00 0.00 82 1014.1
20260902200825 31 51 4.8 14.5 0.00 0.00 0.00 81 1014.1
20260902200321 31 31 6.4 14.5 0.00 0.00 0.00 82 1014.2
20260902200013 31 84 3.2 9.7 0.00 0.00 0.00 82 1014.0
20260902195817 31 94 3.2 11.3 0.00 0.00 0.00 82 1014.1
20260902195315 31 170 4.8 11.3 0.00 0.00 0.00 82 1014.1
20260902194831 31 51 4.8 9.7 0.00 0.00 0.00 82 1014.1
20260902194557 31 85 3.2 9.7 0.00 0.00 0.00 82 1014.0
20260902194328 31 127 3.2 11.3 0.00 0.00 0.00 82 1014.2
20260902193824 31 63 3.2 11.3 0.00 0.00 0.00 82 1014.4
20260902193320 31 124 6.4 11.3 0.00 0.00 0.00 81 1014.5
20260902193044 31 108 4.8 11.3 0.00 0.00 0.00 82 1014.4
20260902192817 31 111 4.8 9.7 0.00 0.00 0.00 82 1014.5
20260902192331 31 37 4.8 11.3 0.00 0.00 0.00 82 1014.7
20260902191847 31 127 4.8 11.3 0.00 0.00 0.00 82 1014.8
20260902191600 31 22 4.8 11.3 0.00 0.00 0.00 81 1014.7
20260902191502 31 110 4.8 11.3 0.00 0.00 0.00 81 1014.7
20260902191324 31 70 4.8 11.3 0.00 0.00 0.00 81 1014.8
20260902190818 31 68 3.2 14.5 0.00 0.00 0.00 81 1014.9
20260902190336 32 29 4.8 14.5 0.00 0.00 0.00 81 1014.9
20260902190048 32 61 8.0 14.5 0.00 0.00 0.00 80 1014.8
20260902185831 32 50 4.8 14.5 0.00 0.00 0.00 80 1014.9
20260902185328 32 46 3.2 9.7 0.00 0.00 0.00 75 1014.8
20260902184823 33 333 0.0 3.2 0.00 0.00 0.00 76 1014.9
20260902184517 33 110 0.0 1.6 0.00 0.00 0.00 75 1014.8
20260902184319 33 111 0.0 3.2 0.00 0.00 0.00 75 1015.0
20260902183815 32 111 0.0 4.8 0.00 0.00 0.00 76 1015.0
20260902183331 32 148 1.6 9.7 0.00 0.00 0.00 76 1015.3
20260902183114 31 35 0.0 9.7 0.00 0.00 0.00 77 1015.2
20260902183002 31 35 0.0 9.7 0.00 0.00 0.00 77 1015.1
20260902182827 32 89 4.8 9.7 0.00 0.00 0.00 77 1015.2
20260902182344 32 30 3.2 8.0 0.00 0.00 0.00 77 1015.2
20260902181840 32 62 3.2 8.0 0.00 0.00 0.00 77 1015.5
20260902181520 32 44 0.0 6.4 0.00 0.00 0.00 78 1015.3
20260902181357 32 136 0.0 6.4 0.00 0.00 0.00 78 1015.3
20260902180854 32 46 3.2 11.3 0.00 0.00 0.00 79 1015.4
20260902180345 31 107 3.2 11.3 0.00 0.00 0.00 79 1015.5
20260902180057 31 25 3.2 11.3 0.00 0.00 0.00 79 1015.3
20260902175821 31 146 0.0 6.4 0.00 0.00 0.00 79 1015.6
20260902175318 31 356 1.6 6.4 0.00 0.00 0.00 78 1015.6
20260902174836 31 46 3.2 8.0 0.00 0.00 0.00 77 1015.6
20260902174544 31 328 1.6 8.0 0.00 0.00 0.00 77 1015.5
20260902174349 32 2 4.8 8.0 0.00 0.00 0.00 77 1015.6
20260902173844 32 22 1.6 4.8 0.00 0.00 0.00 77 1015.7
20260902173320 33 359 0.0 0.0 0.00 0.00 0.00 77 1015.8
20260902173043 32 345 0.0 0.0 0.00 0.00 0.00 76 1015.7
20260902172818 33 340 0.0 0.0 0.00 0.00 0.00 78 1015.9
20260902172332 32 24 0.0 0.0 0.00 0.00 0.00 79 1016.0
20260902171828 32 41 0.0 1.6 0.00 0.00 0.00 79 1016.1
20260902171522 32 206 0.0 3.2 0.00 0.00 0.00 80 1016.1
20260902171325 32 189 0.0 3.2 0.00 0.00 0.00 79 1016.1
20260902170821 32 17 0.0 3.2 0.00 0.00 0.00 80 1016.3
20260902170317 31 349 0.0 3.2 0.00 0.00 0.00 81 1016.6
20260902170011 31 6 0.0 4.8 0.00 0.00 0.00 82 1016.5
20260902165815 31 360 0.0 4.8 0.00 0.00 0.00 82 1016.7
20260902165334 30 356 1.6 4.8 0.00 0.00 0.00 81 1016.7
20260902164831 31 353 0.0 1.6 0.00 0.00 0.00 82 1016.8
20260902164550 30 353 0.0 0.0 0.00 0.00 0.00 82 1016.6
20260902164327 31 353 0.0 0.0 0.00 0.00 0.00 82 1016.7
20260902163823 30 353 0.0 0.0 0.00 0.00 0.00 83 1016.8
20260902163320 30 353 0.0 3.2 0.00 0.00 0.00 83 1016.8
20260902163011 30 353 0.0 3.2 0.00 0.00 0.00 82 1016.8
20260902162818 30 359 0.0 3.2 0.00 0.00 0.00 82 1016.9
20260902162332 30 321 0.0 0.0 0.00 0.00 0.00 82 1017.0
20260902161830 30 314 0.0 1.6 0.00 0.00 0.00 83 1017.0
20260902161601 30 314 0.0 1.6 0.00 0.00 0.00 83 1016.8
20260902161326 30 314 0.0 1.6 0.00 0.00 0.00 83 1017.0
20260902160821 30 44 0.0 1.6 0.00 0.00 0.00 84 1016.9
20260902160318 30 44 0.0 3.2 0.00 0.00 0.00 84 1016.9
20260902160041 30 44 0.0 3.2 0.00 0.00 0.00 84 1016.8
20260902155834 30 359 0.0 3.2 0.00 0.00 0.00 84 1017.0
20260902155329 29 278 0.0 1.6 0.00 0.00 0.00 85 1017.0
20260902154825 29 5 0.0 0.0 0.00 0.00 0.00 85 1017.0
20260902154534 28 5 0.0 3.2 0.00 0.00 0.00 85 1016.9
20260902154321 29 34 0.0 3.2 0.00 0.00 0.00 85 1017.0
20260902153818 28 357 0.0 3.2 0.00 0.00 0.00 85 1017.0
20260902153334 28 28 0.0 3.2 0.00 0.00 0.00 87 1017.1
20260902153021 28 28 0.0 4.8 0.00 0.00 0.00 86 1017.0
20260902152831 28 22 0.0 4.8 0.00 0.00 0.00 86 1017.1
20260902152326 28 351 1.6 4.8 0.00 0.00 0.00 87 1017.1
20260902151823 28 44 1.6 4.8 0.00 0.00 0.00 87 1017.1
20260902151558 28 43 1.6 4.8 0.00 0.00 0.00 87 1017.0
20260902151321 28 359 3.2 4.8 0.00 0.00 0.00 87 1017.2
20260902150819 28 38 3.2 6.4 0.00 0.00 0.00 87 1017.1
20260902150335 28 34 1.6 6.4 0.00 0.00 0.00 88 1017.0
20260902150011 28 323 3.2 6.4 0.00 0.00 0.00 87 1016.8
20260902145849 28 348 3.2 4.8 0.00 0.00 0.00 87 1016.9
20260902145342 28 1 1.6 4.8 0.00 0.00 0.00 88 1016.8
20260902144817 28 25 0.0 1.6 0.00 0.00 0.00 89 1016.8
20260902144519 27 8 0.0 1.6 0.00 0.00 0.00 89 1016.7
20260902144335 28 8 1.6 1.6 0.00 0.00 0.00 89 1016.8
20260902143850 28 351 0.0 1.6 0.00 0.00 0.00 90 1016.8
20260902143345 27 351 0.0 3.2 0.00 0.00 0.00 90 1016.9
20260902143014 27 30 0.0 3.2 0.00 0.00 0.00 90 1016.8
20260902142840 27 354 0.0 3.2 0.00 0.00 0.00 90 1016.9
20260902142316 27 348 1.6 3.2 0.00 0.00 0.00 90 1016.9
20260902141833 27 345 1.6 3.2 0.00 0.00 0.00 90 1016.9
20260902141536 27 25 0.0 3.2 0.00 0.00 0.00 90 1016.8
20260902141327 27 30 1.6 1.6 0.00 0.00 0.00 91 1016.8
20260902140824 27 345 0.0 0.0 0.00 0.00 0.00 91 1016.9
20260902140321 27 345 0.0 0.0 0.00 0.00 0.00 91 1016.8
20260902140055 26 345 0.0 1.6 0.00 0.00 0.00 91 1016.6
20260902135837 27 345 0.0 3.2 0.00 0.00 0.00 92 1016.7
20260902135325 27 345 1.6 3.2 0.00 0.00 0.00 92 1016.6
20260902134821 27 352 0.0 0.0 0.00 0.00 0.00 92 1016.5
20260902134517 26 352 0.0 0.0 0.00 0.00 0.00 92 1016.4
20260902134338 27 352 0.0 0.0 0.00 0.00 0.00 92 1016.5
20260902133834 27 352 0.0 0.0 0.00 0.00 0.00 93 1016.6
20260902133331 26 352 0.0 0.0 0.00 0.00 0.00 93 1016.6
20260902133045 26 352 0.0 0.0 0.00 0.00 0.00 93 1016.4
20260902132828 26 352 0.0 0.0 0.00 0.00 0.00 93 1016.4
20260902132325 26 352 0.0 0.0 0.00 0.00 0.00 93 1016.3
20260902131822 26 352 0.0 1.6 0.00 0.00 0.00 93 1016.2
20260902131525 26 352 0.0 3.2 0.00 0.00 0.00 93 1016.1
20260902131321 26 352 0.0 3.2 0.00 0.00 0.00 93 1016.3
20260902130816 26 351 0.0 1.6 0.00 0.00 0.00 93 1016.4
20260902130332 26 65 0.0 1.6 0.00 0.00 0.00 94 1016.4
20260902130015 26 65 0.0 1.6 0.00 0.00 0.00 94 1016.3
20260902125850 26 65 0.0 0.0 0.00 0.00 0.00 94 1016.4
20260902125325 26 65 0.0 0.0 0.00 0.00 0.00 94 1016.3
20260902124821 26 65 0.0 0.0 0.00 0.00 0.00 94 1016.2
20260902124541 26 65 0.0 0.0 0.00 0.00 0.00 94 1016.2
20260902124317 26 65 0.0 0.0 0.00 0.00 0.00 94 1016.3
20260902123814 26 65 0.0 0.0 0.00 0.00 0.00 94 1016.3
20260902123326 26 65 0.0 1.6 0.00 0.00 0.00 94 1016.2
20260902123029 26 65 0.0 1.6 0.00 0.00 0.00 94 1016.1
20260902122823 26 65 0.0 1.6 0.00 0.00 0.00 94 1016.1
20260902122318 26 74 0.0 0.0 0.00 0.00 0.00 94 1016.1
20260902121815 26 74 0.0 0.0 0.00 0.00 0.00 94 1016.1
20260902121518 25 74 0.0 0.0 0.00 0.00 0.00 94 1016.0
20260902121331 26 74 0.0 0.0 0.00 0.00 0.00 94 1016.1
20260902120828 26 74 0.0 0.0 0.00 0.00 0.00 94 1016.1
20260902120346 26 74 0.0 0.0 0.00 0.00 0.00 94 1016.1
20260902115843 26 74 0.0 0.0 0.00 0.00 0.00 94 1016.2
20260902115337 26 74 0.0 0.0 0.00 0.00 0.00 94 1016.3
20260902114830 26 74 0.0 0.0 0.00 0.00 0.00 94 1016.1
20260902114547 25 74 0.0 0.0 0.00 0.00 0.00 94 1016.1
20260902114326 26 74 0.0 0.0 0.00 0.00 0.00 94 1016.2
20260902113820 26 74 0.0 0.0 0.00 0.00 0.00 94 1016.1
20260902113338 26 74 0.0 0.0 0.00 0.00 0.00 94 1016.2
20260902113013 25 74 0.0 0.0 0.00 0.00 0.00 94 1016.0
20260902112815 25 74 0.0 0.0 0.00 0.00 0.00 94 1016.1
20260902112330 25 74 0.0 0.0 0.00 0.00 0.00 94 1016.0
20260902111827 25 74 0.0 0.0 0.00 0.00 0.00 94 1015.9
20260902111604 25 74 0.0 0.0 0.00 0.00 0.00 94 1015.8
20260902111324 25 74 0.0 0.0 0.00 0.00 0.00 94 1015.9
20260902110821 25 74 0.0 0.0 0.00 0.00 0.00 94 1015.8
20260902110318 25 74 0.0 0.0 0.00 0.00 0.00 94 1015.9
20260902110039 25 74 0.0 0.0 0.00 0.00 0.00 94 1015.7
20260902105834 25 74 0.0 0.0 0.00 0.00 0.00 94 1015.7
20260902105329 25 74 0.0 0.0 0.00 0.00 0.00 94 1015.6
20260902104826 25 74 0.0 0.0 0.00 0.00 0.00 93 1015.5
20260902104529 25 74 0.0 0.0 0.00 0.00 0.00 93 1015.5
20260902104324 25 74 0.0 0.0 0.00 0.00 0.00 93 1015.5
20260902103822 25 74 0.0 0.0 0.00 0.00 0.00 93 1015.6
20260902103338 25 74 0.0 0.0 0.00 0.00 0.00 93 1015.7
20260902103055 25 74 0.0 0.0 0.00 0.00 0.00 93 1015.5
20260902102834 25 74 0.0 0.0 0.00 0.00 0.00 93 1015.8
20260902102330 25 74 0.0 0.0 0.00 0.00 0.00 93 1015.8
20260902101826 25 74 0.0 0.0 0.00 0.00 0.00 93 1015.7
20260902101544 25 74 0.0 0.0 0.00 0.00 0.00 93 1015.6
20260902101322 25 74 0.0 0.0 0.00 0.00 0.00 93 1015.7
20260902100819 25 74 0.0 0.0 0.00 0.00 0.00 93 1015.7
20260902100316 25 74 0.0 0.0 0.00 0.00 0.00 93 1015.7
20260902100029 25 74 0.0 0.0 0.00 0.00 0.00 93 1015.4
20260902095833 25 74 0.0 0.0 0.00 0.00 0.00 93 1015.5
20260902095330 25 74 0.0 0.0 0.00 0.00 0.00 93 1015.2
20260902094827 25 74 0.0 0.0 0.00 0.00 0.00 93 1015.1
20260902094517 25 74 0.0 0.0 0.00 0.00 0.00 93 1015.0
20260902094343 25 74 0.0 0.0 0.00 0.00 0.00 93 1015.0
20260902093819 25 74 0.0 0.0 0.00 0.00 0.00 93 1015.0
20260902093315 25 74 0.0 0.0 0.00 0.00 0.00 93 1015.0
20260902093041 25 74 0.0 0.0 0.00 0.00 0.00 93 1014.9
20260902092855 25 74 0.0 0.0 0.00 0.00 0.00 93 1015.0
20260902092330 25 101 0.0 0.0 0.00 0.00 0.00 93 1015.0
20260902091825 25 123 0.0 0.0 0.00 0.00 0.00 93 1015.2
20260902091504 25 123 0.0 0.0 0.00 0.00 0.00 93 1015.0
20260902091321 25 123 0.0 0.0 0.00 0.00 0.00 93 1015.1
20260902090816 25 123 0.0 0.0 0.00 0.00 0.00 93 1015.0
20260902090332 25 123 0.0 0.0 0.00 0.00 0.00 93 1015.1
20260902090047 25 123 0.0 0.0 0.00 0.00 0.00 93 1015.0
20260902085828 25 123 0.0 0.0 0.00 0.00 0.00 93 1015.1
20260902085325 25 123 0.0 0.0 0.00 0.00 0.00 93 1015.0
20260902084821 25 123 0.0 0.0 0.00 0.00 0.00 92 1015.0
20260902084528 25 123 0.0 0.0 0.00 0.00 0.00 92 1015.0
20260902084339 25 123 0.0 0.0 0.00 0.00 0.00 92 1015.1
20260902083815 25 123 0.0 0.0 0.00 0.00 0.00 92 1015.1
20260902083330 25 123 0.0 0.0 0.00 0.00 0.00 92 1015.1
20260902083057 25 123 0.0 0.0 0.00 0.00 0.00 92 1015.1
20260902082827 25 123 0.0 0.0 0.00 0.00 0.00 92 1015.2
20260902082324 25 123 0.0 0.0 0.00 0.00 0.00 92 1015.2
20260902081820 25 123 0.0 0.0 0.00 0.00 0.00 92 1015.3
20260902081536 25 123 0.0 0.0 0.00 0.00 0.00 92 1015.1
20260902081336 25 123 0.0 0.0 0.00 0.00 0.00 92 1015.2
20260902080853 26 123 0.0 0.0 0.00 0.00 0.00 92 1015.2
20260902080327 26 123 0.0 0.0 0.00 0.00 0.00 92 1015.1
20260902080055 25 123 0.0 0.0 0.00 0.00 0.00 92 1015.0
20260902075826 26 123 0.0 0.0 0.00 0.00 0.00 92 1015.1
20260902075322 26 123 0.0 0.0 0.00 0.00 0.00 91 1015.2
20260902074819 26 123 0.0 0.0 0.00 0.00 0.00 91 1015.2
20260902074541 25 123 0.0 0.0 0.00 0.00 0.00 91 1015.1
20260902074315 26 123 0.0 0.0 0.00 0.00 0.00 91 1015.2
20260902073832 26 123 0.0 0.0 0.00 0.00 0.00 91 1015.2
20260902073329 26 123 0.0 0.0 0.00 0.00 0.00 91 1015.2
20260902073022 26 123 0.0 0.0 0.00 0.00 0.00 91 1015.1
20260902072846 26 123 0.0 0.0 0.00 0.00 0.00 91 1015.2
20260902072322 26 123 0.0 0.0 0.00 0.00 0.00 91 1015.2
20260902071819 26 123 0.0 1.6 0.00 0.00 0.00 91 1015.3
20260902071550 26 123 0.0 1.6 0.00 0.00 0.00 91 1015.1
20260902071315 26 123 0.0 3.2 0.00 0.00 0.00 91 1015.3
20260902070832 26 123 0.0 3.2 0.00 0.00 0.00 91 1015.3
20260902070328 26 136 0.0 1.6 0.00 0.00 0.00 91 1015.3
20260902070034 26 136 0.0 1.6 0.00 0.00 0.00 91 1015.2
20260902065827 26 136 0.0 1.6 0.00 0.00 0.00 91 1015.3
20260902065323 26 136 0.0 3.2 0.00 0.00 0.00 91 1015.4
20260902064819 26 141 0.0 4.8 0.00 0.00 0.00 91 1015.3
20260902064517 26 79 0.0 6.4 0.00 0.00 0.00 91 1015.2
20260902064317 26 105 0.0 6.4 0.00 0.00 0.00 91 1015.4
20260902063832 26 129 1.6 6.4 0.00 0.00 0.00 91 1015.5
20260902063329 26 77 1.6 9.7 0.00 0.00 0.00 91 1015.6
20260902063003 26 127 3.2 9.7 0.00 0.00 0.00 91 1015.5
20260902062847 26 127 1.6 8.0 0.00 0.00 0.00 91 1015.8
20260902062343 26 136 3.2 9.7 0.00 0.00 0.00 91 1015.9
20260902061818 26 124 1.6 6.4 0.00 0.00 0.00 91 1015.9
20260902061600 26 131 1.6 6.4 0.00 0.00 0.00 91 1015.7
20260902061502 26 136 1.6 6.4 0.00 0.00 0.00 91 1015.7
20260902061315 26 111 1.6 6.4 0.00 0.00 0.00 91 1015.8
20260902060827 26 143 0.0 3.2 0.00 0.00 0.00 92 1015.7
20260902060323 26 123 0.0 0.0 0.00 0.00 0.00 92 1015.7
20260902060042 26 61 0.0 0.0 0.00 0.00 0.00 92 1015.5
20260902055822 26 49 0.0 0.0 0.00 0.00 0.00 92 1015.6
20260902055338 26 322 0.0 0.0 0.00 0.00 0.00 92 1015.6
20260902054834 26 354 0.0 0.0 0.00 0.00 0.00 92 1015.6
20260902054506 26 354 0.0 0.0 0.00 0.00 0.00 92 1015.5
20260902054330 26 16 0.0 0.0 0.00 0.00 0.00 92 1015.6
20260902053827 26 56 0.0 0.0 0.00 0.00 0.00 92 1015.8
20260902053345 26 98 0.0 0.0 0.00 0.00 0.00 92 1015.9
20260902053026 26 98 0.0 0.0 0.00 0.00 0.00 92 1015.7
20260902052819 26 98 0.0 0.0 0.00 0.00 0.00 92 1016.0
20260902052317 26 98 0.0 0.0 0.00 0.00 0.00 93 1016.0
20260902051831 26 98 0.0 0.0 0.00 0.00 0.00 93 1016.0
20260902051512 26 135 0.0 0.0 0.00 0.00 0.00 93 1015.9
20260902051328 26 136 0.0 0.0 0.00 0.00 0.00 93 1016.1
20260902050824 26 33 0.0 0.0 0.00 0.00 0.00 93 1016.1
20260902050320 26 27 0.0 0.0 0.00 0.00 0.00 93 1016.0
20260902050107 26 27 0.0 0.0 0.00 0.00 0.00 93 1015.9
20260902050008 26 27 0.0 0.0 0.00 0.00 0.00 93 1015.9
20260902045815 26 27 0.0 0.0 0.00 0.00 0.00 93 1016.1
20260902045329 26 27 0.0 0.0 0.00 0.00 0.00 92 1016.0
20260902044827 26 27 0.0 0.0 0.00 0.00 0.00 93 1016.1
20260902044522 26 27 0.0 0.0 0.00 0.00 0.00 93 1016.0
20260902044323 26 27 0.0 0.0 0.00 0.00 0.00 93 1016.1
20260902043821 26 27 0.0 0.0 0.00 0.00 0.00 92 1016.0
20260902043318 26 27 0.0 0.0 0.00 0.00 0.00 92 1015.9
20260902043024 26 27 0.0 0.0 0.00 0.00 0.00 92 1015.9
20260902042833 26 27 0.0 0.0 0.00 0.00 0.00 92 1016.1
20260902042330 26 27 0.0 0.0 0.00 0.00 0.00 92 1016.1
20260902041827 26 27 0.0 0.0 0.00 0.00 0.00 92 1016.0
20260902041557 26 27 0.0 0.0 0.00 0.00 0.00 92 1015.9
20260902041324 26 27 0.0 0.0 0.00 0.00 0.00 92 1016.1
20260902040822 26 27 0.0 0.0 0.00 0.00 0.00 92 1016.2
20260902040318 26 27 0.0 0.0 0.00 0.00 0.00 92 1016.2
20260902040022 26 27 0.0 0.0 0.00 0.00 0.00 92 1016.1
20260902035815 26 27 0.0 0.0 0.00 0.00 0.00 92 1016.3
20260902035332 26 27 0.0 0.0 0.00 0.00 0.00 92 1016.3
20260902034849 26 27 0.0 0.0 0.00 0.00 0.00 92 1016.3
20260902034541 26 27 0.0 0.0 0.00 0.00 0.00 92 1016.1
20260902034325 26 27 0.0 0.0 0.00 0.00 0.00 92 1016.2
20260902033822 26 27 0.0 0.0 0.00 0.00 0.00 91 1016.3
20260902033319 26 27 0.0 0.0 0.00 0.00 0.00 91 1016.4
20260902033024 26 27 0.0 0.0 0.00 0.00 0.00 91 1016.3
20260902032818 26 27 0.0 0.0 0.00 0.00 0.00 91 1016.5
20260902032333 26 27 0.0 0.0 0.00 0.00 0.00 91 1016.5
20260902031850 26 27 0.0 0.0 0.00 0.00 0.00 91 1016.6
20260902031600 26 27 0.0 0.0 0.00 0.00 0.00 91 1016.5
20260902031327 26 27 0.0 0.0 0.00 0.00 0.00 91 1016.5
20260902030839 26 27 0.0 0.0 0.00 0.00 0.00 91 1016.6
20260902030316 26 27 0.0 0.0 0.00 0.00 0.00 90 1016.7
20260902030012 26 27 0.0 0.0 0.00 0.00 0.00 90 1016.6
20260902025832 26 27 0.0 0.0 0.00 0.00 0.00 90 1016.8
20260902025328 26 27 0.0 0.0 0.00 0.00 0.00 90 1016.8
20260902024825 27 27 0.0 0.0 0.00 0.00 0.00 90 1016.7
20260902024559 26 27 0.0 0.0 0.00 0.00 0.00 90 1016.6
20260902024322 27 27 0.0 0.0 0.00 0.00 0.00 90 1016.6
20260902023820 27 56 0.0 0.0 0.00 0.00 0.00 90 1016.7
20260902023337 27 74 0.0 0.0 0.00 0.00 0.00 90 1016.8